TimeCST,TemperatureF,Dew PointF,Humidity,Sea Level PressureIn,VisibilityMPH,Wind Direction,Wind SpeedMPH,Gust SpeedMPH,PrecipitationIn,Events,Conditions,WindDirDegrees,DateUTC
12:55 AM,47.5,46.0,95,30.26,10.0,East,3.5,-,N/A,,Clear,80,2012-11-11 06:55:00
1:55 AM,50.5,45.9,84,30.26,10.0,Calm,Calm,-,N/A,,Clear,0,2012-11-11 07:55:00
2:55 AM,49.3,44.4,83,30.26,10.0,Calm,Calm,-,N/A,,Clear,0,2012-11-11 08:55:00
3:55 AM,51.4,44.1,76,30.25,10.0,East,8.1,-,N/A,,Clear,100,2012-11-11 09:55:00
4:55 AM,52.9,43.9,71,30.26,10.0,East,5.8,-,N/A,,Clear,90,2012-11-11 10:55:00
5:55 AM,49.3,43.0,79,30.29,10.0,Calm,Calm,-,N/A,,Mostly Cloudy,0,2012-11-11 11:55:00
6:55 AM,53.6,48.2,82,30.28,10.0,East,6.9,-,N/A,,Clear,90,2012-11-11 12:55:00
7:55 AM,60.6,52.7,75,30.29,10.0,East,8.1,-,N/A,,Scattered Clouds,90,2012-11-11 13:55:00
8:55 AM,67.1,54.7,64,30.31,10.0,East,9.2,-,N/A,,Clear,90,2012-11-11 14:55:00
9:55 AM,69.6,55.0,60,30.32,10.0,East,10.4,18.4,N/A,,Mostly Cloudy,100,2012-11-11 15:55:00
10:55 AM,73.4,55.6,54,30.29,10.0,East,16.1,-,N/A,,Partly Cloudy,100,2012-11-11 16:55:00
11:55 AM,75.4,54.3,48,30.27,10.0,SE,13.8,23.0,N/A,,Mostly Cloudy,130,2012-11-11 17:55:00
12:55 PM,74.5,54.9,50,30.25,10.0,SE,13.8,20.7,N/A,,Scattered Clouds,130,2012-11-11 18:55:00
1:55 PM,76.1,53.1,45,30.24,10.0,SSE,15.0,-,N/A,,Clear,150,2012-11-11 19:55:00
2:55 PM,74.3,53.2,48,30.24,10.0,SE,10.4,-,N/A,,Partly Cloudy,130,2012-11-11 20:55:00
3:55 PM,73.4,51.4,46,30.23,10.0,SE,9.2,19.6,N/A,,Clear,140,2012-11-11 21:55:00
4:55 PM,69.6,52.9,55,30.24,10.0,SE,8.1,-,N/A,,Clear,140,2012-11-11 22:55:00
5:55 PM,66.9,54.5,64,30.24,10.0,SSE,5.8,-,N/A,,Clear,150,2012-11-11 23:55:00
6:55 PM,64.8,56.5,74,30.23,10.0,SE,5.8,-,N/A,,Clear,130,2012-11-12 00:55:00
7:55 PM,64.2,56.7,76,30.24,10.0,ESE,3.5,-,N/A,,Clear,110,2012-11-12 01:55:00
8:55 PM,61.7,54.1,76,30.24,10.0,East,3.5,-,N/A,,Clear,90,2012-11-12 02:55:00
9:55 PM,63.1,53.4,71,30.24,10.0,ESE,4.6,-,N/A,,Clear,110,2012-11-12 03:55:00
10:55 PM,63.7,54.0,71,30.24,10.0,ESE,5.8,-,N/A,,Partly Cloudy,120,2012-11-12 04:55:00
11:55 PM,63.9,55.2,73,30.22,10.0,ESE,5.8,-,N/A,,Clear,110,2012-11-12 05:55:00